Location: Balaclava NSW 2575, Australia
(34.4510°S, 150.4953°E)
Time: 17:57:21
(UTC+10:00)

Envisat - Visible Passes

Search period start: 11 August 2020 00:00
Search period end: 21 August 2020 00:00
Orbit: 764 x 766 km, 98.1° (Epoch: 10 August)

Date Brightness Start Highest point End Pass type
(mag) Time Alt. Az. Time Alt. Az. Time Alt. Az.
11 Aug 3.7 05:03:11 10° NNE 05:08:09 56° ESE 05:13:11 10° S visible
11 Aug 4.9 18:55:03 10° S 18:59:32 31° WSW 19:03:58 10° NW visible
12 Aug 5.2 04:27:34 10° ENE 04:31:37 24° ESE 04:35:42 10° SSE visible
12 Aug 3.7 06:05:51 10° NNW 06:10:24 33° W 06:15:02 10° SSW visible
12 Aug 3.3 18:17:48 10° S 18:22:56 72° WSW 18:28:00 10° NNW visible
13 Aug 6.1 03:54:22 10° ESE 03:55:17 10° ESE 03:56:12 10° SE visible
13 Aug 2.9 05:28:27 10° N 05:33:33 80° W 05:38:42 10° SSW visible
13 Aug 5.7 19:21:24 10° SSW 19:24:44 18° WSW 19:28:01 10° WNW visible
14 Aug 4.2 04:52:04 10° NE 04:56:52 43° ESE 05:01:43 10° S visible
14 Aug 4.4 18:43:30 10° S 18:48:16 39° WSW 18:52:59 10° NW visible
15 Aug 5.5 04:16:51 10° ENE 04:20:23 19° ESE 04:23:56 10° SSE visible
15 Aug 3.4 05:54:12 10° N 05:59:01 43° W 06:03:55 10° SSW visible
15 Aug 3.0 18:06:26 10° SSE 18:11:37 88° ENE 18:16:42 10° NNW visible
16 Aug 3.1 05:17:07 10° NNE 05:22:12 79° ESE 05:27:22 10° S visible
16 Aug 5.4 19:09:36 10° SSW 19:13:30 22° WSW 19:17:22 10° WNW visible
17 Aug 4.7 04:41:03 10° NE 04:45:35 34° ESE 04:50:11 10° S visible
17 Aug 3.9 18:32:00 10° S 18:36:58 51° WSW 18:41:53 10° NNW visible
18 Aug 5.8 04:06:20 10° E 04:09:10 15° ESE 04:12:01 10° SSE visible
18 Aug 3.1 05:42:39 10° N 05:47:39 56° W 05:52:42 10° SSW visible
18 Aug 3.0 17:55:07 10° SSE 18:00:16 68° E 18:05:19 10° N visible
18 Aug 6.0 19:36:33 10° SW 19:38:37 12° WSW 19:40:41 10° W visible
19 Aug 3.5 05:05:52 10° NNE 05:10:53 61° ESE 05:15:58 10° S visible
19 Aug 5.0 18:57:54 10° SSW 19:02:15 28° WSW 19:06:33 10° NW visible
20 Aug 5.1 04:30:07 10° NE 04:34:20 26° ESE 04:38:33 10° SSE visible
20 Aug 3.5 18:20:34 10° S 18:25:40 66° WSW 18:30:43 10° NNW visible
